This is the latest recevied weather packets stored in our database for station/object KE5YIM-13. If no packets are shown the sender has not sent any weather packets the latest 10 day(s).
| Time | Temp. | Humidity | Pressure | Rain* | Wind** | Luminosity | Snow |
|---|---|---|---|---|---|---|---|
| 1777673997 | 16.11° C | 40% | 1011.3 hPa | 0 mm | - | 48 W/m² | - |
| 1777673693 | 16.67° C | 39% | 1011.2 hPa | 0 mm | - | 61 W/m² | - |
| 1777673392 | 16.67° C | 41% | 1011.3 hPa | 0 mm | - | 161 W/m² | - |
| 1777673089 | 16.67° C | 42% | 1011.1 hPa | 0 mm | - | 180 W/m² | - |
| 1777672784 | 16.67° C | 39% | 1011.2 hPa | 0 mm | - | 198 W/m² | - |
| 1777672482 | 16.67° C | 41% | 1011.3 hPa | 0 mm | - | 216 W/m² | - |
| 1777672177 | 16.67° C | 42% | 1011.1 hPa | 0 mm | - | 234 W/m² | - |
| 1777671873 | 16.67° C | 41% | 1011.2 hPa | 0 mm | - | 243 W/m² | - |
| 1777671568 | 16.11° C | 41% | 1011 hPa | 0 mm | - | 264 W/m² | - |
| 1777671266 | 16.11° C | 40% | 1011.2 hPa | 0 mm | - | 272 W/m² | - |
| 1777670961 | 16.11° C | 40% | 1011.1 hPa | 0 mm | - | 285 W/m² | - |
| 1777670658 | 16.11° C | 39% | 1011 hPa | 0 mm | - | 301 W/m² | - |
| 1777670355 | 16.67° C | 40% | 1011.1 hPa | 0 mm | - | 316 W/m² | - |
| 1777670052 | 16.67° C | 39% | 1011.2 hPa | 0 mm | - | 330 W/m² | - |
| 1777669750 | 16.67° C | 39% | 1011.2 hPa | 0 mm | - | 348 W/m² | - |
| 1777669446 | 16.67° C | 44% | 1011.2 hPa | 0 mm | - | 364 W/m² | - |
| 1777669143 | 16.67° C | 42% | 1010.9 hPa | 0 mm | - | 379 W/m² | - |
| 1777668840 | 16.67° C | 44% | 1011.2 hPa | 0 mm | - | 392 W/m² | - |
| 1777668536 | 16.67° C | 42% | 1011.1 hPa | 0 mm | - | 409 W/m² | - |
| 1777668233 | 16.11° C | 41% | 1011.1 hPa | 0 mm | - | 428 W/m² | - |
| 1777667929 | 16.67° C | 42% | 1011 hPa | 0 mm | - | 444 W/m² | - |
| 1777667626 | 16.67° C | 43% | 1011 hPa | 0 mm | - | 460 W/m² | - |
| 1777667323 | 16.67° C | 42% | 1010.9 hPa | 0 mm | - | 472 W/m² | - |
| 1777667020 | 16.11° C | 43% | 1011 hPa | 0 mm | - | 498 W/m² | - |
| 1777666717 | 16.11° C | 45% | 1011.1 hPa | 0 mm | - | 507 W/m² | - |
* Rain latest hour (hover to see other rain measurements)
** Current wind speed in m/s (hover to see current wind gust speed)